Terug naar catalogus

STARLINK-5231

ActiefCommunicatieVLEO
NORAD 54182·PAYLOAD·🇺🇸 United States

Gelanceerd Oct 28, 2022 vanaf Vandenberg Space Force Base

Loading…

Volgende Passages (komende 24 uur)

TLE

VersSource: CelesTrak SupGP

Epoch: Sep 15, 2026, 02:30 UTC

1 54182C 22141AB  26258.10465278  .00503950  00000+0  28844-1 0  2582
2 54182  53.1602 202.7744 0001372  85.1025 141.1252 15.11892289    12

Volg STARLINK-5231 in realtime met AllMySat

Download on the App Store